Weather in Kamyshevatskaya

Russia / Krasnodar Krai     46°24′42″N   37°57′19″E
temp.,
°C
wind,
m/s
gust,
m/s
humid.,
%
clouds,
%
prec.,
mm/h
press.,
hPa
HPBL,
m
22 june, tue
tue2200:00+24e6133521 0.0 1010356
03:00+21e511430 0.0 1010218
06:00+20e612520 0.0 1010261
09:00+25ese69443 0.0 1011555
12:00+29e68390 0.0 10111191
15:00+30ese57410 0.0 10111575
18:00+28sw2351100 0.0 1011457
21:00+24wnw3356100 0.0 101035
23 june, wed
wed2300:00+22w35693 0.0 101176
03:00+21w22790 0.0 101218
06:00+22w11845 0.0 101356
09:00+26nw226611 0.0 1014518
12:00+28nnw335884 0.0 1014833
15:00+29n455270 0.0 1013651
18:00+27wnw44638 0.0 1012285
21:00+23wnw477995 0.0 1012104
24 june, thu
thu2400:00+23w478599 0.0 1011127
03:00+22w3488100 0.0 101063
06:00+23ssw5790100 0.0 1012237
09:00+25ssw567551 0.0 1013444
12:00+26sw4469100 0.0 1014484
15:00+26wsw216693 0.0 1014582
18:00+26nw447079 0.6 1014293
21:00+23nnw348183 0.7 101462
25 june, fri
fri2500:00+22nnw348410 0.0 101254
03:00+22nw347513 0.0 101153
06:00+22nw348015 0.1 101291
09:00+26w2259100 0.1 1012393
12:00+27wsw4462100 0.1 1012497
15:00+27wsw546489 0.1 1012567
18:00+25sw336959 0.0 1012369
21:00+22wsw33835 0.0 101237
26 june, sat
sat2600:00+22wsw468587 0.0 1011109
03:00+21nw359272 0.0 1011116
06:00+23w358586 0.0 1011154
09:00+25w557240 0.0 1011420
12:00+27wsw66674 0.0 1011621
15:00+27wsw66643 0.0 1011536
18:00+25sw57725 0.3 1010299
21:00+22sw35884 1.8 101199